Location: Girdwood
(60.9430°N, 149.1660°W)
Time: 05:24:14
(UTC-08:00)

Amateur Radio Satellites - All Passes

Search period start: 30 September 2016 04:54
Search period end: 01 October 2016 04:54
Location: Girdwood, 60.9430°N, 149.1660°W

Satellite Date Start Highest point End Downlink Frequencies (MHz)
Time Altitude Azimuth
AIST 1 30 Sep 05:07:26 05:10:10 16° 81° (E) 05:12:54
AIST 2 30 Sep 05:10:32 05:14:09 30° 128° (SE) 05:17:48 435.215
CUBESAT XI-V 30 Sep 05:13:35 05:18:11 54° 64° (ENE) 05:22:49 437.345
MOZHAYETS 4 30 Sep 05:24:37 05:28:50 36° 265° (W) 05:33:08
JAS-2 30 Sep 05:26:43 05:32:46 26° 328° (NNW) 05:38:50 435.910
KKS-1 30 Sep 05:30:51 05:35:03 40° 262° (W) 05:39:16 437.445
AO-85 30 Sep 05:33:19 05:37:32 45° 225° (SW) 05:41:27 145.980
AO-7 30 Sep 05:34:28 05:42:31 50° 101° (E) 05:50:31 29.400- 29.500
CUSAT 1 30 Sep 05:35:34 05:43:25 52° 58° (ENE) 05:50:22 437.405
YUBILEINY 30 Sep 05:35:57 05:44:39 63° 294° (WNW) 05:53:21 435.215
ITUPSAT 1 30 Sep 05:39:39 05:40:12 10° 283° (WNW) 05:40:45 437.325
BEESAT 2 30 Sep 05:41:13 05:45:10 53° 347° (NNW) 05:49:07 435.950
STRAND 1 30 Sep 05:43:13 05:46:48 19° 40° (NE) 05:50:23 437.568
ITAMSAT 1 30 Sep 05:43:29 05:48:45 90° 300° (WNW) 05:54:00 435.822/435.867
DANDE 30 Sep 05:48:03 05:55:44 41° 51° (NE) 06:03:29 436.750
PCSat 30 Sep 05:50:58 05:55:59 40° 124° (ESE) 06:01:01 145.827
STARS 30 Sep 05:57:13 06:01:23 41° 261° (W) 06:05:33 437.465
Gurwin Techsat 1B 30 Sep 06:03:51 06:08:37 34° 307° (NW) 06:13:22 435.225
BRITE-PL 30 Sep 06:04:04 06:06:43 14° 78° (ENE) 06:09:15 437.365/2234.400
BEESAT 3 30 Sep 06:18:16 06:22:07 47° 2° (N) 06:26:00 437.485
RS-15 30 Sep 06:20:41 06:32:04 47° 243° (WSW) 06:43:21 29.354- 29.394
Cosmos 2491 30 Sep 06:23:58 06:27:58 14° 304° (WNW) 06:31:58 435.465 / 435.565
Oscar 19 30 Sep 06:24:51 06:28:25 19° 320° (NW) 06:31:58 437.125/150
CUTE-I 30 Sep 06:25:06 06:25:37 10° 75° (ENE) 06:26:09 437.470
Cubesat XI-IV 30 Sep 06:25:46 06:26:21 10° 75° (ENE) 06:26:54 437.490
HORYU 2 30 Sep 06:31:27 06:35:13 26° 92° (E) 06:38:59 437.375
AIST 1 30 Sep 06:42:44 06:47:08 80° 102° (ESE) 06:51:31
Cosmos 2504 30 Sep 06:44:57 06:52:00 54° 296° (WNW) 06:59:05 435.465 / 435.565
AIST 2 30 Sep 06:48:09 06:52:19 87° 336° (NNW) 06:56:32 435.215
CUBESAT XI-V 30 Sep 06:51:28 06:55:48 35° 265° (W) 07:00:10 437.345
PRISM 30 Sep 07:06:07 07:07:36 12° 38° (NE) 07:09:06 437.425
JAS-2 30 Sep 07:10:54 07:15:30 17° 353° (N) 07:20:11 435.910
AO-85 30 Sep 07:15:29 07:16:55 12° 248° (WSW) 07:18:19 145.980
GOMX 1 30 Sep 07:17:22 07:20:56 22° 87° (E) 07:24:20 467.674
CUSAT 1 30 Sep 07:17:54 07:25:46 63° 263° (W) 07:32:38 437.405
BEESAT 2 30 Sep 07:19:32 07:23:29 51° 10° (N) 07:27:25 435.950
STRAND 1 30 Sep 07:20:08 07:25:09 58° 63° (ENE) 07:30:12 437.568
O/OREOS (USA 219) 30 Sep 07:20:44 07:23:12 15° 100° (E) 07:25:42 437.305
ITAMSAT 1 30 Sep 07:23:23 07:27:45 28° 312° (NW) 07:32:07 435.822/435.867
DOVE 4 30 Sep 07:25:52 07:28:00 14° 82° (E) 07:30:07 437.250
NOAA 18 30 Sep 07:26:18 07:30:26 21° 87° (E) 07:34:35 137.9125
AO-7 30 Sep 07:27:31 07:35:44 68° 305° (NW) 07:43:55 29.400- 29.500
DANDE 30 Sep 07:31:06 07:39:26 87° 256° (WSW) 07:47:38 436.750
LilacSat-2 30 Sep 07:32:54 07:36:02 23° 91° (E) 07:39:11 437.200
PCSat 30 Sep 07:33:42 07:39:10 77° 327° (NNW) 07:44:38 145.827
YUBILEINY 30 Sep 07:36:16 07:43:31 28° 323° (NW) 07:50:46 435.215
NOAA 15 30 Sep 07:37:01 07:41:49 33° 94° (E) 07:46:34 137.62
HO-68 30 Sep 07:40:49 07:43:00 11° 70° (ENE) 07:45:10 435.675
BRITE-PL 30 Sep 07:41:24 07:46:24 61° 101° (ESE) 07:50:57 437.365/2234.400
Gurwin Techsat 1B 30 Sep 07:44:38 07:47:16 14° 331° (NNW) 07:49:53 435.225
BEESAT 3 30 Sep 07:56:11 08:00:11 75° 25° (NNE) 08:04:11 437.485
Cosmos 2499 30 Sep 07:57:48 08:01:56 17° 67° (ENE) 08:06:07 435.465 / 435.565
CUTE-I 30 Sep 08:02:08 08:07:13 41° 97° (E) 08:12:17 437.470
Cubesat XI-IV 30 Sep 08:02:52 08:07:57 41° 97° (E) 08:13:01 437.490
GONETS M04 30 Sep 08:04:37 08:11:27 26° 71° (ENE) 08:18:18
HORYU 2 30 Sep 08:07:44 08:12:11 67° 293° (WNW) 08:16:38 437.375
CINEMA 3 30 Sep 08:18:02 08:19:57 13° 82° (E) 08:21:53 145.822/145.860
AIST 1 30 Sep 08:21:46 08:25:17 23° 304° (NW) 08:28:48
UNISAT 6 30 Sep 08:22:09 08:23:23 11° 36° (NE) 08:24:37 437.425
AIST 2 30 Sep 08:27:04 08:31:09 50° 354° (N) 08:35:15 435.215
RS-15 30 Sep 08:34:28 08:41:07 17° 271° (W) 08:47:45 29.354- 29.394
PRISM 30 Sep 08:38:04 08:41:56 37° 59° (ENE) 08:45:49 437.425
Cosmos 2504 30 Sep 08:41:58 08:47:18 22° 324° (NW) 08:52:42 435.465 / 435.565
COMPASS 1 30 Sep 08:47:19 08:47:59 10° 79° (ENE) 08:48:39 437.405
JAS-2 30 Sep 08:53:04 08:58:01 20° 18° (NNE) 09:03:08 435.910
GOMX 1 30 Sep 08:55:03 08:59:39 76° 290° (WNW) 09:03:57 467.674
ANTELSAT 30 Sep 08:55:35 08:58:13 16° 44° (NE) 09:00:53 437.575/2403.000
O/OREOS (USA 219) 30 Sep 08:57:14 09:01:46 61° 121° (ESE) 09:06:20 437.305
BEESAT 2 30 Sep 08:57:31 09:01:33 82° 215° (SW) 09:05:36 435.950
STRAND 1 30 Sep 08:59:54 09:04:37 37° 264° (W) 09:09:23 437.568
CUSAT 1 30 Sep 09:00:45 09:06:21 22° 287° (WNW) 09:11:31 437.405
DOVE 4 30 Sep 09:02:22 09:06:40 68° 104° (ESE) 09:10:48 437.250
ITAMSAT 1 30 Sep 09:03:52 09:05:46 12° 335° (NNW) 09:07:40 435.822/435.867
NOAA 18 30 Sep 09:06:29 09:11:59 80° 109° (ESE) 09:17:29 137.9125
LilacSat-2 30 Sep 09:06:52 09:10:40 60° 293° (WNW) 09:14:28 437.200
CUBEBUG 2 30 Sep 09:06:55 09:08:49 13° 82° (E) 09:10:45 437.445
DANDE 30 Sep 09:14:20 09:21:31 34° 277° (W) 09:28:36 436.750
TIGRISAT 30 Sep 09:14:43 09:17:47 20° 48° (NE) 09:20:53 435.000
NOAA 15 30 Sep 09:16:43 09:22:01 67° 295° (WNW) 09:27:16 137.62
PCSat 30 Sep 09:17:56 09:23:11 46° 351° (N) 09:28:27 145.827
SEEDS 30 Sep 09:19:08 09:22:35 23° 90° (E) 09:26:02 437.485
UWE-3 30 Sep 09:19:20 09:20:58 12° 81° (E) 09:22:37 435.000/436.395/437.385
BRITE-PL 30 Sep 09:20:09 09:24:41 34° 305° (NW) 09:28:53 437.365/2234.400
AO-7 30 Sep 09:20:20 09:27:27 34° 331° (NNW) 09:34:35 29.400- 29.500
CUTE 1.7 + AOD 2 30 Sep 09:22:41 09:26:34 31° 94° (E) 09:30:25 437.475
CANX-2 30 Sep 09:24:28 09:28:28 35° 95° (E) 09:32:27 2200.000
HO-68 30 Sep 09:26:18 09:32:59 40° 95° (E) 09:39:38 435.675
AAUSAT CUBESAT 2 30 Sep 09:33:46 09:36:52 20° 88° (E) 09:39:57 437.432
BEESAT 3 30 Sep 09:34:00 09:37:41 36° 227° (SW) 09:41:21 437.485
Oscar 11 30 Sep 09:35:19 09:36:37 11° 79° (E) 09:37:55 145.826/435.025
YUBILEINY 30 Sep 09:38:31 09:44:10 18° 355° (N) 09:49:49 435.215
ZACube-1 30 Sep 09:42:03 09:44:04 13° 82° (E) 09:46:06 437.345
CUTE-I 30 Sep 09:42:15 09:47:29 54° 299° (WNW) 09:52:43 437.470
Cubesat XI-IV 30 Sep 09:43:02 09:48:15 54° 299° (WNW) 09:53:28 437.490
HORYU 2 30 Sep 09:45:00 09:48:06 19° 315° (NW) 09:51:13 437.375
Cosmos 2499 30 Sep 09:46:38 09:53:28 56° 93° (E) 10:00:27 435.465 / 435.565
CINEMA 3 30 Sep 09:53:49 09:57:59 64° 103° (ESE) 10:02:11 145.822/145.860
UNISAT 6 30 Sep 09:55:10 09:59:02 35° 58° (ENE) 10:02:57 437.425
QB50P2 30 Sep 09:55:13 09:57:07 13° 40° (NE) 09:59:01 145.880/145.840
POLYITAN 1 30 Sep 09:57:25 09:59:17 13° 40° (NE) 10:01:10 437.675
GONETS M04 30 Sep 09:58:08 10:06:55 73° 97° (E) 10:15:45
AIST 2 30 Sep 10:05:58 10:10:07 59° 17° (NNE) 10:14:17 435.215
PRISM 30 Sep 10:13:13 10:17:14 44° 260° (W) 10:21:17 437.425
COMPASS 1 30 Sep 10:20:26 10:24:35 50° 100° (E) 10:28:42 437.405
DUCHIFAT 1 30 Sep 10:29:59 10:32:45 17° 47° (NE) 10:35:32 145.980
ANTELSAT 30 Sep 10:30:02 10:34:13 59° 66° (ENE) 10:38:28 437.575/2403.000
DELFI C3 30 Sep 10:30:07 10:32:18 14° 84° (E) 10:34:27 145.870
FUNcube-1 30 Sep 10:33:26 10:37:12 28° 93° (E) 10:40:59 145.935
GOMX 1 30 Sep 10:33:48 10:37:07 20° 313° (NW) 10:40:18 467.674
JAS-2 30 Sep 10:34:45 10:41:05 34° 43° (NE) 10:47:51 435.910
QB50P1 30 Sep 10:34:57 10:38:01 20° 49° (NE) 10:41:04 145.935-145.965
BEESAT 2 30 Sep 10:35:42 10:38:57 24° 234° (SW) 10:42:12 435.950
O/OREOS (USA 219) 30 Sep 10:37:04 10:41:26 41° 324° (NW) 10:45:51 437.305
DOVE 4 30 Sep 10:40:31 10:44:06 26° 306° (NW) 10:47:35 437.250
Cosmos 2504 30 Sep 10:40:48 10:44:12 14° 356° (N) 10:47:38 435.465 / 435.565
CUBEBUG 2 30 Sep 10:42:08 10:46:21 61° 103° (ESE) 10:50:40 437.445
LilacSat-2 30 Sep 10:42:11 10:44:19 14° 313° (NW) 10:46:27 437.200
NOAA 18 30 Sep 10:47:30 10:52:18 32° 311° (NW) 10:57:06 137.9125
POPSAT HIP 1 30 Sep 10:48:23 10:51:43 23° 52° (NE) 10:55:04 437.405
TIGRISAT 30 Sep 10:49:41 10:53:56 79° 70° (ENE) 10:58:15 435.000
UWE-3 30 Sep 10:54:09 10:58:23 56° 102° (ESE) 11:02:42 435.000/436.395/437.385
SEEDS 30 Sep 10:54:28 10:58:45 72° 291° (WNW) 11:03:00 437.485
NOAA 15 30 Sep 10:57:02 11:01:03 22° 318° (NW) 11:05:05 137.62
CUTE 1.7 + AOD 2 30 Sep 10:58:26 11:02:39 53° 295° (WNW) 11:06:51 437.475
DANDE 30 Sep 10:59:29 11:02:02 12° 300° (WNW) 11:04:36 436.750
BRITE-PL 30 Sep 10:59:42 11:01:51 13° 328° (NNW) 11:03:55 437.365/2234.400
CANX-2 30 Sep 11:00:20 11:04:30 47° 296° (WNW) 11:08:38 2200.000
Gurwin Techsat 1B 30 Sep 11:01:53 11:02:59 11° 20° (NNE) 11:04:07 435.225
PCSat 30 Sep 11:02:09 11:07:28 51° 16° (NNE) 11:12:46 145.827
NANOSAT C BR1 30 Sep 11:02:21 11:05:54 27° 55° (NE) 11:09:28 145.865
AAUSAT CUBESAT 2 30 Sep 11:08:41 11:12:55 84° 286° (WNW) 11:17:08 437.432
Oscar 11 30 Sep 11:09:30 11:13:48 52° 101° (E) 11:18:04 145.826/435.025
AO-7 30 Sep 11:11:57 11:18:13 25° 357° (N) 11:24:28 29.400- 29.500
HUMSAT D 30 Sep 11:12:30 11:15:37 19° 88° (E) 11:18:43 437.325/437.525
HO-68 30 Sep 11:14:08 11:21:18 73° 298° (WNW) 11:28:25 435.675
ZACube-1 30 Sep 11:16:58 11:21:15 61° 103° (ESE) 11:25:36 437.345
Oscar 19 30 Sep 11:17:46 11:20:33 15° 33° (NNE) 11:23:19 437.125/150
CUTE-I 30 Sep 11:22:55 11:26:38 20° 321° (NW) 11:30:21 437.470
Cubesat XI-IV 30 Sep 11:23:43 11:27:25 19° 321° (NW) 11:31:08 437.490
QB50P2 30 Sep 11:28:02 11:32:01 43° 62° (ENE) 11:36:02 145.880/145.840
POLYITAN 1 30 Sep 11:30:13 11:34:12 43° 62° (ENE) 11:38:12 437.675
CINEMA 3 30 Sep 11:31:24 11:34:55 27° 305° (NW) 11:38:28 145.822/145.860
UNISAT 6 30 Sep 11:31:33 11:35:42 49° 260° (W) 11:39:54 437.425
YUBILEINY 30 Sep 11:38:26 11:45:07 23° 28° (NNE) 11:51:46 435.215
Cosmos 2499 30 Sep 11:40:01 11:46:49 49° 299° (WNW) 11:53:49 435.465 / 435.565
AIST 2 30 Sep 11:44:34 11:48:43 60° 219° (SW) 11:52:52 435.215
BUGSAT 1 30 Sep 11:54:30 11:58:08 32° 59° (ENE) 12:01:46 437.445
GONETS M04 30 Sep 11:56:00 12:04:27 46° 304° (WNW) 12:12:56
COMPASS 1 30 Sep 11:56:13 12:00:04 34° 301° (WNW) 12:03:53 437.405
DUCHIFAT 1 30 Sep 12:03:41 12:07:50 68° 67° (ENE) 12:12:00 145.980
DELFI C3 30 Sep 12:03:49 12:07:54 72° 105° (ESE) 12:11:55 145.870
ANTELSAT 30 Sep 12:07:36 12:11:17 28° 267° (W) 12:15:00 437.575/2403.000
QB50P1 30 Sep 12:09:04 12:13:17 81° 69° (ENE) 12:17:31 145.935-145.965
FUNcube-1 30 Sep 12:09:31 12:13:45 60° 294° (WNW) 12:18:04 145.935
JAS-2 30 Sep 12:18:12 12:25:16 81° 67° (ENE) 12:33:04 435.910
O/OREOS (USA 219) 30 Sep 12:18:18 12:21:58 23° 349° (N) 12:25:39 437.305
ITAMSAT 1 30 Sep 12:18:49 12:20:35 12° 24° (NNE) 12:22:23 435.822/435.867
CUBEBUG 2 30 Sep 12:19:08 12:22:49 29° 303° (WNW) 12:26:33 437.445
POPSAT HIP 1 30 Sep 12:22:55 12:27:08 81° 254° (WSW) 12:31:22 437.405
CUBEBUG 1 30 Sep 12:23:34 12:25:43 13° 82° (E) 12:27:52 437.445
VELOX 1 30 Sep 12:27:27 12:29:08 12° 81° (E) 12:30:47 145.980
TIGRISAT 30 Sep 12:27:56 12:31:11 21° 271° (W) 12:34:28 435.000
NOAA 18 30 Sep 12:28:50 12:31:36 14° 334° (NNW) 12:34:21 137.9125
SEEDS 30 Sep 12:30:53 12:33:51 18° 312° (NW) 12:36:48 437.485
UWE-3 30 Sep 12:30:56 12:34:43 31° 302° (WNW) 12:38:34 435.000/436.395/437.385
CUTE 1.7 + AOD 2 30 Sep 12:35:13 12:37:43 15° 316° (NW) 12:40:11 437.475
Cosmos 2504 30 Sep 12:36:29 12:41:19 18° 29° (NNE) 12:46:17 435.465 / 435.565
NANOSAT C BR1 30 Sep 12:37:13 12:41:24 65° 257° (WSW) 12:45:35 145.865
Gurwin Techsat 1B 30 Sep 12:37:14 12:41:18 23° 43° (NE) 12:45:22 435.225
CANX-2 30 Sep 12:37:15 12:39:30 14° 318° (NW) 12:41:43 2200.000
NOAA 15 30 Sep 12:38:01 12:39:12 11° 341° (NNW) 12:40:21 137.62
ESTCUBE 1 30 Sep 12:39:30 12:43:15 24° 90° (E) 12:46:58 437.505/2401.250
50 SAT 30 Sep 12:41:34 12:43:04 12° 84° (E) 12:44:35 437.505
AAUSAT CUBESAT 2 30 Sep 12:44:47 12:47:54 20° 310° (NW) 12:51:00 437.432
PCSat 30 Sep 12:45:49 12:51:17 83° 221° (SW) 12:56:44 145.827
Oscar 11 30 Sep 12:45:53 12:49:51 34° 302° (WNW) 12:53:47 145.826/435.025
HUMSAT D 30 Sep 12:47:32 12:51:48 87° 289° (WNW) 12:56:06 437.325/437.525
SPROUT 30 Sep 12:50:46 12:52:18 12° 81° (E) 12:53:49 437.525
ZACube-1 30 Sep 12:53:37 12:57:22 30° 303° (WNW) 13:01:10 437.345
Oscar 19 30 Sep 12:53:55 12:58:42 38° 55° (NE) 13:03:28 437.125/150
AO-7 30 Sep 13:01:59 13:08:52 31° 24° (NNE) 13:15:45 29.400- 29.500
HO-68 30 Sep 13:02:08 13:08:12 31° 322° (NW) 13:14:16 435.675
QB50P2 30 Sep 13:03:59 13:07:56 38° 263° (W) 13:11:54 145.880/145.840
POLYITAN 1 30 Sep 13:06:11 13:10:07 38° 263° (W) 13:14:03 437.675
UKube-1 30 Sep 13:10:25 13:12:48 14° 84° (E) 13:15:09 .
UNISAT 6 30 Sep 13:13:04 13:13:32 10° 281° (WNW) 13:14:00 437.425
AISAT 30 Sep 13:19:06 13:22:56 28° 93° (E) 13:26:45 437.250
AIST 2 30 Sep 13:23:47 13:26:31 17° 241° (WSW) 13:29:14 435.215
BUGSAT 1 30 Sep 13:29:29 13:33:26 49° 259° (W) 13:37:23 437.445
COMPASS 1 30 Sep 13:33:34 13:34:34 11° 323° (NW) 13:35:33 437.405
YUBILEINY 30 Sep 13:36:07 13:44:34 49° 58° (ENE) 13:52:56 435.215
Cosmos 2499 30 Sep 13:36:59 13:42:03 20° 327° (NNW) 13:47:16 435.465 / 435.565
DELFI C3 30 Sep 13:39:08 13:42:25 24° 306° (NW) 13:45:40 145.870
M-CUBED/EXP-1 PRIME 30 Sep 13:40:16 13:41:53 13° 95° (E) 13:43:29 437.505
DUCHIFAT 1 30 Sep 13:40:32 13:43:56 24° 269° (W) 13:47:22 145.980
DX 1 30 Sep 13:44:04 13:47:54 29° 94° (E) 13:51:43 434.975-435.025
QB50P1 30 Sep 13:46:27 13:49:36 20° 271° (W) 13:52:46 145.935-145.965
FUNcube-1 30 Sep 13:46:39 13:49:19 16° 314° (NW) 13:52:00 145.935
Cosmos 2491 30 Sep 13:49:42 13:55:33 20° 65° (ENE) 14:01:24 435.465 / 435.565
ITAMSAT 1 30 Sep 13:54:18 13:58:36 27° 47° (NE) 14:02:54 435.822/435.867
GONETS M04 30 Sep 13:57:22 14:04:04 23° 334° (NNW) 14:10:46
CUBEBUG 1 30 Sep 13:58:35 14:02:56 63° 103° (ESE) 14:07:14 437.445
O/OREOS (USA 219) 30 Sep 13:59:06 14:02:50 23° 14° (NNE) 14:06:34 437.305
TISAT 1 30 Sep 14:00:05 14:01:48 12° 82° (E) 14:03:29 437.305
POPSAT HIP 1 30 Sep 14:00:56 14:03:37 16° 274° (W) 14:06:20 437.405
VELOX 1 30 Sep 14:02:15 14:06:37 55° 102° (ESE) 14:10:57 145.980
JAS-2 30 Sep 14:04:36 14:11:03 37° 272° (W) 14:18:05 435.910
UWE-3 30 Sep 14:09:46 14:10:05 10° 324° (NW) 14:10:25 435.000/436.395/437.385
50 SAT 30 Sep 14:13:36 14:17:18 69° 105° (ESE) 14:20:58 437.505
Gurwin Techsat 1B 30 Sep 14:15:16 14:20:32 69° 66° (ENE) 14:25:51 435.225
NANOSAT C BR1 30 Sep 14:15:55 14:17:59 13° 277° (W) 14:20:03 145.865
ESTCUBE 1 30 Sep 14:15:59 14:20:34 74° 291° (WNW) 14:25:05 437.505/2401.250
Oscar 11 30 Sep 14:23:36 14:24:54 11° 324° (NW) 14:26:12 145.826/435.025
HUMSAT D 30 Sep 14:23:45 14:26:58 21° 309° (NW) 14:30:11 437.325/437.525
SPROUT 30 Sep 14:25:00 14:29:13 56° 102° (ESE) 14:33:25 437.525
PCSat 30 Sep 14:29:36 14:34:08 28° 243° (WSW) 14:38:39 145.827
Cosmos 2504 30 Sep 14:30:12 14:37:05 42° 57° (ENE) 14:44:18 435.465 / 435.565
Oscar 19 30 Sep 14:32:45 14:37:54 60° 257° (WSW) 14:43:04 437.125/150
AUBIESAT-1 30 Sep 14:33:38 14:36:40 31° 105° (ESE) 14:39:40 437.475
UKube-1 30 Sep 14:45:21 14:49:41 68° 106° (ESE) 14:54:00 .
HO-68 30 Sep 14:49:25 14:54:04 19° 348° (NNW) 14:58:41 435.675
AO-7 30 Sep 14:52:18 15:00:22 58° 50° (NE) 15:08:26 29.400- 29.500
AISAT 30 Sep 14:55:24 14:59:46 61° 294° (WNW) 15:04:06 437.250
AIST 1 30 Sep 15:02:07 15:04:57 17° 49° (NE) 15:07:46
M-CUBED/EXP-1 PRIME 30 Sep 15:13:42 15:17:03 87° 113° (ESE) 15:20:19 437.505
DX 1 30 Sep 15:20:06 15:24:25 58° 295° (WNW) 15:28:41 434.975-435.025
ITAMSAT 1 30 Sep 15:32:22 15:37:34 87° 70° (ENE) 15:42:50 435.822/435.867
YUBILEINY 30 Sep 15:33:16 15:41:55 68° 265° (W) 15:50:29 435.215
TISAT 1 30 Sep 15:34:12 15:38:21 60° 103° (ESE) 15:42:29 437.305
CUBEBUG 1 30 Sep 15:35:13 15:39:00 29° 305° (NW) 15:42:46 437.445
Cosmos 2499 30 Sep 15:35:21 15:38:47 14° 360° (N) 15:42:18 435.465 / 435.565
O/OREOS (USA 219) 30 Sep 15:38:49 15:43:18 46° 38° (NE) 15:47:45 437.305
VELOX 1 30 Sep 15:38:59 15:42:58 34° 303° (WNW) 15:46:56 145.980
Cosmos 2491 30 Sep 15:41:59 15:50:32 58° 91° (E) 15:59:08 435.465 / 435.565
NOAA 18 30 Sep 15:46:20 15:48:50 13° 23° (NNE) 15:51:21 137.9125
ITUPSAT 1 30 Sep 15:46:27 15:50:27 25° 90° (E) 15:54:26 437.325
50 SAT 30 Sep 15:47:34 15:50:30 22° 305° (NW) 15:53:23 437.505
BRITE-PL 30 Sep 15:47:41 15:51:08 17° 40° (NE) 15:54:28 437.365/2234.400
NOAA 15 30 Sep 15:51:49 15:54:38 15° 30° (NNE) 15:57:28 137.62
ESTCUBE 1 30 Sep 15:53:25 15:56:46 20° 313° (NW) 16:00:06 437.505/2401.250
SO-50 30 Sep 15:56:00 15:59:33 21° 121° (ESE) 16:03:03 436.795
Gurwin Techsat 1B 30 Sep 15:56:13 16:00:57 32° 267° (W) 16:05:42 435.225
JAS-2 30 Sep 15:56:31 15:58:41 11° 297° (WNW) 16:00:53 435.910
SWISSCUBE 30 Sep 15:57:40 16:02:01 32° 94° (E) 16:06:20 437.505
GONETS M04 30 Sep 15:59:14 16:05:06 19° 7° (N) 16:10:57
SPROUT 30 Sep 16:01:14 16:05:01 31° 303° (WNW) 16:08:47 437.525
HORYU 2 30 Sep 16:04:01 16:07:20 21° 48° (NE) 16:10:41 437.375
AUBIESAT-1 30 Sep 16:08:07 16:11:16 38° 306° (NW) 16:14:21 437.475
BEESAT 30 Sep 16:10:16 16:14:43 36° 96° (E) 16:19:09 436.000
Oscar 19 30 Sep 16:15:20 16:18:20 15° 279° (W) 16:21:20 437.125/150
CUTE-I 30 Sep 16:17:42 16:20:56 17° 34° (NE) 16:24:11 437.470
Cubesat XI-IV 30 Sep 16:18:32 16:21:48 17° 34° (NE) 16:25:04 437.490
UKube-1 30 Sep 16:21:46 16:25:28 28° 306° (NW) 16:29:09 .
Cosmos 2504 30 Sep 16:23:45 16:31:02 71° 262° (W) 16:38:45 435.465 / 435.565
AISAT 30 Sep 16:32:38 16:35:33 17° 316° (NW) 16:38:26 437.250
HO-68 30 Sep 16:34:47 16:39:32 19° 14° (NNE) 16:44:16 435.675
AIST 1 30 Sep 16:39:06 16:43:26 68° 73° (ENE) 16:47:41
AO-7 30 Sep 16:45:03 16:53:16 61° 255° (WSW) 17:01:30 29.400- 29.500
M-CUBED/EXP-1 PRIME 30 Sep 16:48:50 16:51:14 18° 317° (NW) 16:53:35 437.505
LilacSat-2 30 Sep 16:52:42 16:54:20 12° 44° (NE) 16:55:58 437.200
DX 1 30 Sep 16:57:07 16:59:52 17° 317° (NW) 17:02:38 434.975-435.025
GOMX 1 30 Sep 16:58:20 17:02:06 21° 48° (NE) 17:05:43 467.674
DOVE 4 30 Sep 17:05:23 17:07:43 14° 41° (NE) 17:10:00 437.250
MOZHAYETS 4 30 Sep 17:08:43 17:12:51 30° 93° (E) 17:16:57
TISAT 1 30 Sep 17:10:11 17:13:49 29° 304° (NW) 17:17:26 437.305
KKS-1 30 Sep 17:11:27 17:14:53 21° 89° (E) 17:18:17 437.445
ITAMSAT 1 30 Sep 17:13:34 17:17:44 24° 271° (W) 17:21:57 435.822/435.867
CUBEBUG 1 30 Sep 17:14:04 17:14:06 10° 327° (NNW) 17:14:07 437.445
VELOX 1 30 Sep 17:16:56 17:18:20 11° 325° (NW) 17:19:45 145.980
O/OREOS (USA 219) 30 Sep 17:18:21 17:22:51 52° 241° (WSW) 17:27:19 437.305
BRITE-PL 30 Sep 17:23:18 17:28:38 47° 62° (ENE) 17:33:44 437.365/2234.400
NOAA 18 30 Sep 17:23:24 17:28:03 29° 47° (NE) 17:32:42 137.9125
ITUPSAT 1 30 Sep 17:23:59 17:28:49 77° 292° (WNW) 17:33:39 437.325
NOAA 15 30 Sep 17:28:21 17:33:10 36° 53° (NE) 17:38:00 137.62
Cosmos 2499 30 Sep 17:30:25 17:35:33 20° 32° (NNE) 17:40:54 435.465 / 435.565
YUBILEINY 30 Sep 17:30:47 17:37:11 24° 291° (WNW) 17:43:36 435.215
SO-50 30 Sep 17:34:37 17:39:23 65° 142° (SE) 17:44:04 436.795
SWISSCUBE 30 Sep 17:35:23 17:40:08 60° 296° (WNW) 17:44:53 437.505
STARS 30 Sep 17:36:24 17:39:37 20° 88° (E) 17:42:50 437.465
Cosmos 2491 30 Sep 17:38:54 17:47:34 57° 297° (WNW) 17:56:20 435.465 / 435.565
HORYU 2 30 Sep 17:38:57 17:43:23 80° 69° (ENE) 17:47:50 437.375
SPROUT 30 Sep 17:39:16 17:39:50 10° 325° (NW) 17:40:25 437.525
AUBIESAT-1 30 Sep 17:44:02 17:44:59 11° 328° (NNW) 17:45:55 437.475
BEESAT 30 Sep 17:48:03 17:52:44 54° 297° (WNW) 17:57:25 436.000
CUTE-I 30 Sep 17:54:53 17:59:52 43° 57° (ENE) 18:04:55 437.470
CINEMA 3 30 Sep 17:55:05 17:56:27 11° 39° (NE) 17:57:48 145.822/145.860
Cubesat XI-IV 30 Sep 17:55:46 18:00:47 43° 57° (ENE) 18:05:49 437.490
GONETS M04 30 Sep 17:58:10 18:05:43 29° 39° (NE) 18:13:11
AIST 1 30 Sep 18:17:14 18:20:40 23° 274° (W) 18:24:05
Cosmos 2504 30 Sep 18:17:54 18:23:18 23° 286° (WNW) 18:28:55 435.465 / 435.565
HO-68 30 Sep 18:19:16 18:25:27 33° 40° (NE) 18:31:40 435.675
LilacSat-2 30 Sep 18:24:12 18:27:51 49° 66° (ENE) 18:31:33 437.200
GOMX 1 30 Sep 18:34:27 18:39:37 72° 69° (ENE) 18:44:28 467.674
CUBESAT XI-V 30 Sep 18:37:05 18:41:22 33° 94° (E) 18:45:35 437.345
DOVE 4 30 Sep 18:40:04 18:44:34 45° 63° (ENE) 18:48:51 437.250
CUBEBUG 2 30 Sep 18:41:37 18:42:18 10° 37° (NE) 18:43:00 437.445
AO-7 30 Sep 18:42:02 18:47:56 21° 279° (W) 18:53:51 29.400- 29.500
MOZHAYETS 4 30 Sep 18:45:45 18:50:22 62° 294° (WNW) 18:54:56
SEEDS 30 Sep 18:46:52 18:49:22 15° 45° (NE) 18:51:52 437.485
KKS-1 30 Sep 18:47:33 18:52:01 82° 290° (WNW) 18:56:27 437.445
CUSAT 1 30 Sep 18:48:52 18:54:52 28° 78° (ENE) 19:01:19 437.405
CUTE 1.7 + AOD 2 30 Sep 18:50:44 18:53:48 19° 49° (NE) 18:56:51 437.475
RS-15 30 Sep 18:51:05 18:57:08 16° 88° (E) 19:03:18 29.354- 29.394
CANX-2 30 Sep 18:52:26 18:55:39 21° 50° (NE) 18:58:54 2200.000
O/OREOS (USA 219) 30 Sep 18:59:28 19:01:17 12° 263° (W) 19:03:06 437.305
AAUSAT CUBESAT 2 30 Sep 19:00:34 19:02:35 13° 42° (NE) 19:04:36 437.432
BRITE-PL 30 Sep 19:01:42 19:07:10 49° 262° (W) 19:12:23 437.365/2234.400
ITUPSAT 1 30 Sep 19:02:23 19:06:05 23° 314° (NW) 19:09:47 437.325
NOAA 18 30 Sep 19:02:46 19:08:15 89° 245° (WSW) 19:13:47 137.9125
Oscar 11 30 Sep 19:07:11 19:07:24 10° 34° (NE) 19:07:38 145.826/435.025
NOAA 15 30 Sep 19:07:26 19:12:45 67° 256° (WSW) 19:18:05 137.62
DANDE 30 Sep 19:10:15 19:14:39 19° 69° (ENE) 19:19:37 436.750
STARS 30 Sep 19:12:11 19:16:36 88° 297° (WNW) 19:20:59 437.465
SWISSCUBE 30 Sep 19:13:51 19:17:11 19° 317° (NW) 19:20:30 437.505
ZACube-1 30 Sep 19:14:52 19:15:30 10° 36° (NE) 19:16:08 437.345
SO-50 30 Sep 19:15:14 19:20:00 63° 345° (NNW) 19:24:40 436.795
HORYU 2 30 Sep 19:17:03 19:20:29 22° 270° (W) 19:23:57 437.375
Cosmos 2499 30 Sep 19:23:50 19:30:53 46° 60° (ENE) 19:38:25 435.465 / 435.565
BEESAT 30 Sep 19:26:35 19:29:42 17° 319° (NW) 19:32:48 436.000
CINEMA 3 30 Sep 19:28:40 19:32:39 38° 61° (ENE) 19:36:32 145.822/145.860
CUTE-I 30 Sep 19:34:44 19:39:55 53° 259° (W) 19:45:11 437.470
Cubesat XI-IV 30 Sep 19:35:39 19:40:51 53° 259° (W) 19:46:06 437.490
Cosmos 2491 30 Sep 19:39:35 19:46:44 26° 326° (NNW) 19:53:55 435.465 / 435.565
COMPASS 1 30 Sep 19:46:08 19:49:39 26° 55° (NE) 19:53:13 437.405
GONETS M04 30 Sep 19:55:36 20:04:28 68° 68° (ENE) 20:13:13
LilacSat-2 30 Sep 19:59:06 20:02:24 28° 267° (W) 20:05:42 437.200
FUNcube-1 30 Sep 20:04:14 20:07:04 18° 48° (NE) 20:09:56 145.935
HO-68 30 Sep 20:05:18 20:12:28 80° 64° (ENE) 20:19:40 435.675
GOMX 1 30 Sep 20:13:40 20:18:07 28° 269° (W) 20:22:22 467.674
CUBEBUG 2 30 Sep 20:14:08 20:17:53 34° 59° (ENE) 20:21:39 437.445
CUBESAT XI-V 30 Sep 20:14:23 20:19:02 57° 295° (WNW) 20:23:38 437.345
DOVE 4 30 Sep 20:17:51 20:22:23 41° 262° (W) 20:26:41 437.250
SEEDS 30 Sep 20:20:09 20:24:18 55° 66° (ENE) 20:28:30 437.485
MOZHAYETS 4 30 Sep 20:23:39 20:26:48 18° 315° (NW) 20:29:56
KKS-1 30 Sep 20:24:42 20:28:04 22° 312° (NW) 20:31:26 437.445
CUTE 1.7 + AOD 2 30 Sep 20:24:48 20:29:04 76° 70° (ENE) 20:33:23 437.475
UWE-3 30 Sep 20:25:17 20:28:57 31° 58° (ENE) 20:32:39 435.000/436.395/437.385
CANX-2 30 Sep 20:26:44 20:31:01 86° 69° (ENE) 20:35:21 2200.000
CUSAT 1 30 Sep 20:28:35 20:35:51 77° 102° (ESE) 20:43:56 437.405
AAUSAT CUBESAT 2 30 Sep 20:33:11 20:37:12 46° 63° (ENE) 20:41:15 437.432
Oscar 11 30 Sep 20:38:35 20:42:22 30° 56° (NE) 20:46:10 145.826/435.025
HUMSAT D 30 Sep 20:40:17 20:42:16 13° 42° (NE) 20:44:15 437.325/437.525
BRITE-PL 30 Sep 20:44:16 20:46:52 13° 283° (WNW) 20:49:24 437.365/2234.400
NOAA 18 30 Sep 20:45:18 20:49:41 24° 271° (W) 20:54:05 137.9125
ZACube-1 30 Sep 20:46:58 20:50:42 33° 58° (ENE) 20:54:29 437.345
STARS 30 Sep 20:49:06 20:52:30 22° 311° (NW) 20:55:53 437.465
DANDE 30 Sep 20:49:33 20:55:45 57° 95° (E) 21:03:27 436.750
NOAA 15 30 Sep 20:50:05 20:53:33 17° 277° (W) 20:57:04 137.62
RS-15 30 Sep 20:55:11 21:06:03 45° 116° (ESE) 21:17:18 29.354- 29.394
SO-50 30 Sep 20:56:18 21:00:59 57° 9° (N) 21:05:33 436.795
STRAND 1 30 Sep 20:59:11 21:04:03 39° 96° (E) 21:08:52 437.568
CINEMA 3 30 Sep 21:05:42 21:09:50 43° 261° (W) 21:13:52 145.822/145.860
Cosmos 2499 30 Sep 21:17:08 21:24:27 66° 264° (W) 21:32:18 435.465 / 435.565
CUTE-I 30 Sep 21:18:39 21:21:16 14° 281° (W) 21:23:52 437.470
Cubesat XI-IV 30 Sep 21:19:38 21:22:13 13° 281° (WNW) 21:24:48 437.490
COMPASS 1 30 Sep 21:20:44 21:24:56 69° 256° (WSW) 21:29:10 437.405
DELFI C3 30 Sep 21:24:52 21:28:27 32° 59° (ENE) 21:32:05 145.870
AO-85 30 Sep 21:36:56 21:40:35 20° 121° (ESE) 21:44:03 145.980
FUNcube-1 30 Sep 21:38:35 21:42:43 72° 68° (ENE) 21:46:56 145.935
Cosmos 2491 30 Sep 21:41:48 21:47:36 18° 359° (N) 21:53:23 435.465 / 435.565
PRISM 30 Sep 21:45:14 21:47:37 15° 85° (E) 21:50:00 437.425
CUBEBUG 2 30 Sep 21:50:26 21:54:28 48° 260° (W) 21:58:31 437.445
CUBESAT XI-V 30 Sep 21:52:32 21:55:37 18° 317° (NW) 21:58:41 437.345
GONETS M04 30 Sep 21:52:49 22:01:05 47° 274° (W) 22:09:19
HO-68 30 Sep 21:54:24 22:00:54 36° 267° (W) 22:07:27 435.675
CUBEBUG 1 30 Sep 21:55:21 21:57:09 12° 38° (NE) 21:58:57 437.445
SEEDS 30 Sep 21:56:33 22:00:17 29° 267° (W) 22:04:04 437.485
VELOX 1 30 Sep 22:00:14 22:01:58 12° 36° (NE) 22:03:42 145.980
UWE-3 30 Sep 22:01:14 22:05:18 53° 259° (W) 22:09:24 435.000/436.395/437.385
CUTE 1.7 + AOD 2 30 Sep 22:02:04 22:05:25 22° 271° (W) 22:08:48 437.475
CANX-2 30 Sep 22:04:21 22:07:29 20° 273° (W) 22:10:38 2200.000
AAUSAT CUBESAT 2 30 Sep 22:08:57 22:12:49 35° 265° (W) 22:16:43 437.432
CUSAT 1 30 Sep 22:11:29 22:18:35 44° 307° (NW) 22:26:14 437.405
HUMSAT D 30 Sep 22:13:04 22:17:01 46° 63° (ENE) 22:21:02 437.325/437.525
ESTCUBE 1 30 Sep 22:13:34 22:16:49 20° 46° (NE) 22:20:06 437.505/2401.250
Oscar 11 30 Sep 22:14:01 22:18:18 61° 258° (WSW) 22:22:39 145.826/435.025
SPROUT 30 Sep 22:21:07 22:21:50 10° 35° (NE) 22:22:34 437.525
AUBIESAT-1 30 Sep 22:22:21 22:24:06 13° 36° (NE) 22:25:48 437.475
ZACube-1 30 Sep 22:22:52 22:26:54 50° 260° (W) 22:31:01 437.345
DANDE 30 Sep 22:32:20 22:38:45 54° 301° (WNW) 22:46:38 436.750
SO-50 30 Sep 22:37:02 22:41:45 81° 211° (SSW) 22:46:19 436.795
STRAND 1 30 Sep 22:38:25 22:43:27 55° 298° (WNW) 22:48:29 437.568
UKube-1 30 Sep 22:40:42 22:42:47 13° 39° (NE) 22:44:52 .
AISAT 30 Sep 22:51:00 22:54:23 22° 49° (NE) 22:57:46 437.250
ISS 30 Sep 22:51:01 22:52:58 15° 168° (SSE) 22:54:56 145.825
COMPASS 1 30 Sep 22:59:03 23:01:19 14° 277° (W) 23:03:36 437.405
DELFI C3 30 Sep 22:59:17 23:03:11 49° 259° (W) 23:07:10 145.870
M-CUBED/EXP-1 PRIME 30 Sep 23:01:12 23:04:13 24° 47° (NE) 23:07:05 437.505
RS-15 30 Sep 23:05:31 23:17:31 85° 145° (SE) 23:29:58 29.354- 29.394
Cosmos 2499 30 Sep 23:11:05 23:16:20 21° 288° (WNW) 23:21:49 435.465 / 435.565
UNISAT 6 30 Sep 23:12:58 23:16:08 19° 87° (E) 23:19:19 437.425
DX 1 30 Sep 23:14:17 23:17:41 22° 49° (NE) 23:21:05 434.975-435.025
AO-85 30 Sep 23:15:32 23:20:27 63° 141° (SE) 23:24:58 145.980
FUNcube-1 30 Sep 23:16:11 23:19:28 22° 271° (W) 23:22:46 145.935
JAS-2 30 Sep 23:18:22 23:21:08 12° 64° (ENE) 23:23:54 435.910
PRISM 30 Sep 23:19:31 23:23:42 74° 106° (ESE) 23:27:49 437.425
50 SAT 30 Sep 23:26:53 23:29:57 26° 57° (ENE) 23:33:05 437.505
CUBEBUG 1 30 Sep 23:28:21 23:32:26 38° 60° (ENE) 23:36:31 437.445
TISAT 1 30 Sep 23:28:35 23:29:32 11° 36° (NE) 23:30:30 437.305
VELOX 1 30 Sep 23:33:19 23:37:23 36° 58° (ENE) 23:41:28 145.980
Cosmos 2491 30 Sep 23:41:26 23:48:31 25° 32° (NNE) 23:55:33 435.465 / 435.565
UWE-3 30 Sep 23:41:50 23:42:48 11° 281° (W) 23:43:47 435.000/436.395/437.385
ANTELSAT 30 Sep 23:47:49 23:51:47 32° 95° (E) 23:55:49 437.575/2403.000
ESTCUBE 1 30 Sep 23:48:28 23:53:00 70° 68° (ENE) 23:57:33 437.505/2401.250
HUMSAT D 30 Sep 23:49:01 23:52:48 34° 265° (W) 23:56:39 437.325/437.525
GONETS M04 30 Sep 23:50:51 23:55:40 16° 300° (WNW) 00:00:29
SPROUT 30 Sep 23:52:53 23:56:40 32° 57° (ENE) 00:00:29 437.525
Oscar 11 30 Sep 23:53:21 23:55:23 13° 279° (W) 23:57:25 145.826/435.025
AUBIESAT-1 30 Sep 23:54:23 23:57:58 47° 57° (ENE) 00:01:20 437.475
CUSAT 1 30 Sep 23:56:54 00:02:50 23° 333° (NNW) 00:08:54 437.405
SWISSCUBE 01 Oct 00:03:32 00:04:51 11° 29° (NNE) 00:06:11 437.505
ZACube-1 01 Oct 00:03:55 00:04:17 10° 281° (WNW) 00:04:38 437.345
TIGRISAT 01 Oct 00:07:16 00:11:28 42° 99° (E) 00:15:43 435.000
NANOSAT C BR1 01 Oct 00:12:51 00:14:26 12° 81° (E) 00:15:59 145.865
UKube-1 01 Oct 00:13:48 00:17:55 43° 60° (ENE) 00:22:01 .
BEESAT 01 Oct 00:15:37 00:17:19 12° 31° (NNE) 00:19:00 436.000
DANDE 01 Oct 00:17:47 00:23:32 25° 328° (NNW) 00:30:02 436.750
SO-50 01 Oct 00:17:51 00:21:45 27° 235° (SW) 00:25:33 436.795
STRAND 1 01 Oct 00:18:15 00:21:46 19° 320° (NW) 00:25:17 437.568
AISAT 01 Oct 00:25:54 00:30:22 83° 69° (ENE) 00:34:49 437.250
ISS 01 Oct 00:26:32 00:28:37 16° 188° (S) 00:30:41 145.825
M-CUBED/EXP-1 PRIME 01 Oct 00:34:44 00:38:33 71° 246° (WSW) 00:42:07 437.505
QB50P2 01 Oct 00:38:38 00:41:48 20° 89° (E) 00:44:57 145.880/145.840
POLYITAN 1 01 Oct 00:40:49 00:43:58 20° 88° (E) 00:47:06 437.675
DX 1 01 Oct 00:49:01 00:53:25 88° 71° (ENE) 00:57:49 434.975-435.025
UNISAT 6 01 Oct 00:49:05 00:53:29 88° 105° (ESE) 00:57:59 437.425
PRISM 01 Oct 00:55:16 00:58:41 25° 307° (NW) 01:02:04 437.425
AO-85 01 Oct 00:56:13 01:01:02 62° 343° (NNW) 01:05:27 145.980
50 SAT 01 Oct 00:59:40 01:03:16 55° 257° (WSW) 01:06:55 437.505
TISAT 1 01 Oct 01:00:22 01:04:09 34° 58° (ENE) 01:07:55 437.305
JAS-2 01 Oct 01:01:26 01:08:40 37° 89° (E) 01:15:42 435.910
BUGSAT 1 01 Oct 01:01:58 01:03:59 13° 84° (E) 01:06:00 437.445
YUBILEINY 01 Oct 01:02:43 01:04:52 11° 52° (NE) 01:07:01 435.215
CUBEBUG 1 01 Oct 01:04:27 01:08:43 46° 260° (W) 01:12:59 437.445
VELOX 1 01 Oct 01:09:27 01:13:47 50° 259° (W) 01:18:09 145.980
BEESAT 3 01 Oct 01:12:17 01:13:58 12° 116° (ESE) 01:15:40 437.485
DUCHIFAT 1 01 Oct 01:13:17 01:17:01 30° 94° (E) 01:20:45 145.980
RS-15 01 Oct 01:18:36 01:30:49 75° 357° (N) 01:43:18 29.354- 29.394
QB50P1 01 Oct 01:19:20 01:23:17 37° 97° (E) 01:27:12 145.935-145.965
ANTELSAT 01 Oct 01:24:28 01:28:45 53° 296° (WNW) 01:33:07 437.575/2403.000
ESTCUBE 1 01 Oct 01:26:26 01:30:15 26° 269° (W) 01:34:07 437.505/2401.250
ITUPSAT 1 01 Oct 01:26:36 01:30:23 24° 48° (NE) 01:34:11 437.325
SPROUT 01 Oct 01:28:18 01:32:29 55° 258° (WSW) 01:36:42 437.525
AUBIESAT-1 01 Oct 01:29:16 01:32:36 29° 255° (WSW) 01:35:46 437.475
POPSAT HIP 1 01 Oct 01:33:11 01:37:16 46° 100° (E) 01:41:21 437.405
SWISSCUBE 01 Oct 01:37:16 01:41:20 28° 51° (NE) 01:45:25 437.505
Cosmos 2491 01 Oct 01:39:04 01:47:47 55° 61° (ENE) 01:56:25 435.465 / 435.565
CUSAT 1 01 Oct 01:43:02 01:48:03 17° 0° (N) 01:53:00 437.405
TIGRISAT 01 Oct 01:44:06 01:48:13 41° 299° (WNW) 01:52:24 435.000
NANOSAT C BR1 01 Oct 01:46:56 01:51:06 57° 103° (ESE) 01:55:15 145.865
BEESAT 01 Oct 01:49:40 01:53:51 31° 53° (NE) 01:58:04 436.000
UKube-1 01 Oct 01:49:56 01:54:02 40° 261° (W) 01:58:09 .
AISAT 01 Oct 02:04:00 02:07:24 21° 271° (W) 02:10:49 437.250
DANDE 01 Oct 02:04:28 02:09:27 18° 356° (N) 02:14:46 436.750
M-CUBED/EXP-1 PRIME 01 Oct 02:11:54 02:13:41 13° 265° (W) 02:15:25 437.505
BEESAT 2 01 Oct 02:13:38 02:16:38 21° 124° (ESE) 02:19:40 435.950
QB50P2 01 Oct 02:13:54 02:18:10 83° 290° (WNW) 02:22:24 145.880/145.840
POLYITAN 1 01 Oct 02:16:05 02:20:20 83° 288° (WNW) 02:24:34 437.675
Gurwin Techsat 1B 01 Oct 02:22:15 02:24:47 13° 78° (ENE) 02:27:18 435.225
UNISAT 6 01 Oct 02:26:21 02:29:48 23° 309° (NW) 02:33:18 437.425
DX 1 01 Oct 02:26:59 02:30:13 20° 271° (W) 02:33:27 434.975-435.025
Oscar 19 01 Oct 02:34:00 02:38:14 25° 89° (E) 02:42:27 437.125/150
TISAT 1 01 Oct 02:35:38 02:39:43 50° 259° (W) 02:43:48 437.305
BUGSAT 1 01 Oct 02:36:07 02:40:09 69° 106° (ESE) 02:44:10 437.445
AO-85 01 Oct 02:37:24 02:41:59 53° 7° (N) 02:46:12 145.980
KKS-1 01 Oct 02:44:18 02:47:20 18° 45° (NE) 02:50:22 437.445
MOZHAYETS 4 01 Oct 02:44:37 02:48:12 23° 49° (NE) 02:51:49
JAS-2 01 Oct 02:46:30 02:54:26 83° 292° (WNW) 03:02:08 435.910
BEESAT 3 01 Oct 02:46:59 02:50:47 48° 137° (SE) 02:54:38 437.485
DUCHIFAT 1 01 Oct 02:48:52 02:52:58 53° 295° (WNW) 02:57:03 145.980
VELOX 1 01 Oct 02:50:06 02:51:21 11° 280° (W) 02:52:35 145.980
YUBILEINY 01 Oct 02:51:16 02:58:51 35° 79° (ENE) 03:06:25 435.215
QB50P1 01 Oct 02:55:09 02:59:10 44° 298° (WNW) 03:03:11 145.935-145.965
ANTELSAT 01 Oct 03:02:07 03:04:43 16° 317° (NW) 03:07:19 437.575/2403.000
ITUPSAT 1 01 Oct 03:02:54 03:07:41 83° 71° (ENE) 03:12:33 437.325
SPROUT 01 Oct 03:08:00 03:09:25 11° 280° (W) 03:10:50 437.525
STARS 01 Oct 03:08:10 03:10:57 17° 44° (NE) 03:13:45 437.465
POPSAT HIP 1 01 Oct 03:09:09 03:13:01 36° 301° (WNW) 03:16:53 437.405
SWISSCUBE 01 Oct 03:14:00 03:18:48 78° 254° (WSW) 03:23:38 437.505
TIGRISAT 01 Oct 03:22:01 03:23:59 13° 321° (NW) 03:25:56 435.000
NANOSAT C BR1 01 Oct 03:22:59 03:26:40 30° 304° (WNW) 03:30:22 145.865
Cosmos 2504 01 Oct 03:24:04 03:29:07 21° 72° (ENE) 03:34:10 435.465 / 435.565
BEESAT 01 Oct 03:26:37 03:31:23 69° 254° (WSW) 03:36:12 436.000
CUSAT 1 01 Oct 03:27:10 03:33:15 23° 27° (NNE) 03:39:00 437.405
RS-15 01 Oct 03:31:58 03:44:21 88° 28° (NNE) 03:56:46 29.354- 29.394
ITAMSAT 1 01 Oct 03:35:40 03:38:46 16° 82° (E) 03:41:52 435.822/435.867
Cosmos 2491 01 Oct 03:36:16 03:44:56 61° 268° (W) 03:53:32 435.465 / 435.565
DANDE 01 Oct 03:49:38 03:55:34 22° 23° (NNE) 04:01:43 436.750
BEESAT 2 01 Oct 03:49:58 03:53:56 74° 145° (SE) 03:57:58 435.950
QB50P2 01 Oct 03:50:21 03:53:28 20° 310° (NW) 03:56:36 145.880/145.840
POLYITAN 1 01 Oct 03:52:31 03:55:38 20° 311° (NW) 03:58:45 437.675
Gurwin Techsat 1B 01 Oct 04:00:48 04:06:01 52° 100° (E) 04:11:13 435.225
BUGSAT 1 01 Oct 04:11:56 04:15:15 25° 306° (NW) 04:18:34 437.445
Oscar 19 01 Oct 04:13:00 04:18:13 84° 291° (WNW) 04:23:22 437.125/150
CUBESAT XI-V 01 Oct 04:14:01 04:17:50 25° 51° (NE) 04:21:40 437.345
TISAT 1 01 Oct 04:16:00 04:16:24 10° 280° (W) 04:16:48 437.305
AO-85 01 Oct 04:18:12 04:22:45 87° 206° (SSW) 04:26:53 145.980
KKS-1 01 Oct 04:18:50 04:23:14 65° 66° (ENE) 04:27:40 437.445
MOZHAYETS 4 01 Oct 04:20:14 04:24:51 85° 70° (ENE) 04:29:32
BEESAT 3 01 Oct 04:24:30 04:28:26 63° 339° (NNW) 04:32:25 437.485
DUCHIFAT 1 01 Oct 04:25:33 04:27:53 15° 317° (NW) 04:30:13 145.980
JAS-2 01 Oct 04:31:46 04:38:42 36° 315° (NW) 04:45:34 435.910
QB50P1 01 Oct 04:32:07 04:34:03 13° 319° (NW) 04:36:01 145.935-145.965
AO-7 01 Oct 04:34:44 04:41:41 28° 88° (E) 04:48:36 29.400- 29.500
STARS 01 Oct 04:42:17 04:46:35 59° 65° (ENE) 04:50:55 437.465
ITUPSAT 1 01 Oct 04:42:20 04:46:08 23° 271° (W) 04:49:59 437.325
POPSAT HIP 1 01 Oct 04:46:30 04:47:48 11° 322° (NW) 04:49:07 437.405
